Flag for U.S.A. Weather past 2 weeks in Idaho Falls, Idaho, U.S.A.

Now
46 °F

Clear.


Feels Like: 45 °F
Forecast: 49 / 76 °F
Wind: 3 mph from North

Location: Fanning Field

Current Time: Sep 23, 2014 at 8:43:42 AM

Latest Report: Sep 23, 2014 at 7:53 AM


Visibility: 10 mi

Pressure: 30.11 "Hg

Humidity: 96%

Dew point: 45 °F

Location of Idaho FallsLocation

Historic Weather in Idaho Falls — Graph

°F

Idaho Falls temperature yesterday

Maximum temperature yesterday: 73 °F (at 2:53 PM)
Minimum temperature yesterday: 51 °F (at 3:00 AM)
Average temperature yesterday: 62 °F

Past Weeks' High & Low Weather Summary

 TemperatureHumidityPressure
High88 °F (Sep 17, 3:53 PM)100% (Sep 22, 2:02 AM)30.39 "Hg (Sep 22, 2:02 AM)
Low25 °F (Sep 12, 6:53 AM)12% (Sep 9, 6:53 PM)29.68 "Hg (Sep 18, 2:53 PM)
Average61 °F51%29.99 "Hg
* Reported Sep 8 6:53 AM — Sep 23 6:53 AM, Idaho Falls, Weather by CustomWeather, © 2014

Note: Actual official high and low records may vary slightly from our data, if they occured in-between our weather recording intervals... More about our weather records

Advertising

Idaho Falls weather history for previous 24 hours

 ConditionsComfort  
Time TempWeatherWind HumidityBarometerVisibility
6:53 AM
Sep 23
46 °FClear.No wind96%30.09 "Hg10 mi
5:53 AM47 °FClear.3 mph97%30.08 "Hg9 mi
4:53 AM50 °FClear.7 mph89%30.06 "Hg10 mi
3:53 AM52 °FClear.No wind86%30.06 "Hg10 mi
2:53 AM56 °FClear.No wind81%30.05 "Hg10 mi
1:53 AM56 °FClear.6 mph84%30.06 "Hg10 mi
12:53 AM57 °FOvercast.7 mph81%30.05 "Hg10 mi
11:53 PM
Sep 22
57 °FPassing clouds.6 mph81%30.05 "Hg10 mi
10:53 PM61 °FPassing clouds.6 mph70%30.03 "Hg10 mi
9:53 PM65 °FOvercast.8 mph59%30.03 "Hg10 mi
8:53 PM66 °FOvercast.8 mph56%30.02 "Hg10 mi
7:53 PM66 °FOvercast.7 mph54%30.02 "Hg10 mi
6:53 PM70 °FPartly sunny.14 mph46%30.01 "Hg10 mi
5:53 PM70 °FPartly sunny.13 mph46%30.01 "Hg10 mi
4:53 PM73 °FScattered clouds.15 mph43%30.01 "Hg10 mi
3:53 PM73 °FScattered clouds.14 mph44%30.01 "Hg10 mi
2:53 PM73 °FBroken clouds.14 mph46%30.03 "Hg10 mi
1:53 PM70 °FBroken clouds.14 mph55%30.04 "Hg10 mi
12:53 PM69 °FBroken clouds.15 mph59%30.05 "Hg10 mi
11:53 AM66 °FPartly sunny.9 mph68%30.06 "Hg10 mi
10:53 AM62 °FPartly sunny.5 mph78%30.08 "Hg10 mi
9:53 AM59 °FPartly sunny.7 mph87%30.09 "Hg10 mi
8:53 AM57 °FMostly cloudy.3 mph90%30.08 "Hg10 mi
Weather by CustomWeather, © 2014

See weather overviewHow to use our weather pages